| time (UTC) | temp F | wind direction | speed knots | gust knots | rain 1hr in | rain 24hr in | rain mn in | humidity % | barometer mb |
| 20260505052158 | 61 | 117 | 0.0 | 0.0 | 0.00 | 0.00 | 0.00 | 75 | 1013.9 |
| 20260505051655 | 61 | 117 | 0.0 | 0.0 | 0.00 | 0.00 | 0.00 | 74 | 1013.8 |
| 20260505051154 | 62 | 234 | 0.0 | 0.0 | 0.00 | 0.00 | 0.00 | 72 | 1013.9 |
| 20260505050651 | 62 | 338 | 0.0 | 0.0 | 0.00 | 0.00 | 0.00 | 71 | 1013.9 |
| 20260505050149 | 62 | 68 | 0.9 | 0.9 | 0.00 | 0.00 | 0.00 | 70 | 1013.5 |
| 20260505041619 | 65 | 62 | 1.7 | 1.7 | 0.00 | 0.00 | 0.00 | 63 | 1013.4 |
| 20260505041116 | 65 | 16 | 1.7 | 2.6 | 0.00 | 0.00 | 0.00 | 63 | 1013.3 |
| 20260505040613 | 65 | 9 | 0.9 | 0.9 | 0.00 | 0.00 | 0.00 | 62 | 1013.2 |
| 20260505040110 | 66 | 168 | 0.9 | 1.7 | 0.00 | 0.00 | 0.00 | 61 | 1013.1 |
| 20260505035606 | 66 | 358 | 0.0 | 0.9 | 0.00 | 0.00 | 0.00 | 60 | 1013.1 |
| 20260505035103 | 67 | 22 | 0.0 | 0.9 | 0.00 | 0.00 | 0.00 | 59 | 1012.9 |
| 20260505034559 | 67 | 342 | 1.7 | 1.7 | 0.00 | 0.00 | 0.00 | 59 | 1012.8 |
| 20260505034056 | 67 | 356 | 3.5 | 4.3 | 0.00 | 0.00 | 0.00 | 58 | 1012.8 |
| 20260505033553 | 67 | 294 | 0.9 | 0.9 | 0.00 | 0.00 | 0.00 | 57 | 1012.8 |
| 20260505033052 | 68 | 11 | 4.3 | 5.2 | 0.00 | 0.00 | 0.00 | 56 | 1012.8 |
| 20260505032549 | 68 | 357 | 2.6 | 2.6 | 0.00 | 0.00 | 0.00 | 56 | 1012.6 |
| 20260505032045 | 69 | 12 | 1.7 | 1.7 | 0.00 | 0.00 | 0.00 | 56 | 1012.6 |
| 20260505031543 | 69 | 357 | 4.3 | 6.1 | 0.00 | 0.00 | 0.00 | 55 | 1012.5 |
| 20260505031039 | 70 | 350 | 6.1 | 7.8 | 0.00 | 0.00 | 0.00 | 53 | 1012.3 |
| 20260505030536 | 71 | 332 | 6.1 | 7.0 | 0.00 | 0.00 | 0.00 | 53 | 1012.2 |
| 20260505030032 | 72 | 35 | 2.6 | 5.2 | 0.00 | 0.00 | 0.00 | 53 | 1012.3 |
| 20260505025528 | 73 | 328 | 5.2 | 7.0 | 0.00 | 0.00 | 0.00 | 52 | 1012.2 |
| 20260505025027 | 74 | 47 | 0.0 | 0.0 | 0.00 | 0.00 | 0.00 | 50 | 1012.1 |
| 20260505024524 | 74 | 339 | 2.6 | 4.3 | 0.00 | 0.00 | 0.00 | 49 | 1012.2 |
| 20260505024021 | 75 | 17 | 0.9 | 1.7 | 0.00 | 0.00 | 0.00 | 48 | 1011.9 |
| 20260505023518 | 76 | 65 | 0.9 | 0.9 | 0.00 | 0.00 | 0.00 | 48 | 1012.0 |
| 20260505023015 | 78 | 18 | 1.7 | 2.6 | 0.00 | 0.00 | 0.00 | 49 | 1012.1 |
| 20260505022513 | 78 | 270 | 2.6 | 2.6 | 0.00 | 0.00 | 0.00 | 44 | 1012.0 |
| 20260505022010 | 78 | 272 | 2.6 | 2.6 | 0.00 | 0.00 | 0.00 | 44 | 1012.2 |
| 20260505021506 | 78 | 246 | 1.7 | 1.7 | 0.00 | 0.00 | 0.00 | 44 | 1012.0 |
| 20260505021003 | 78 | 237 | 2.6 | 2.6 | 0.00 | 0.00 | 0.00 | 43 | 1012.0 |
| 20260505020457 | 78 | 311 | 1.7 | 1.7 | 0.00 | 0.00 | 0.00 | 43 | 1012.1 |
| 20260505015954 | 79 | 267 | 3.5 | 4.3 | 0.00 | 0.00 | 0.00 | 42 | 1012.0 |
| 20260505015452 | 78 | 213 | 1.7 | 1.7 | 0.00 | 0.00 | 0.00 | 43 | 1011.9 |
| 20260505014949 | 78 | 270 | 4.3 | 5.2 | 0.00 | 0.00 | 0.00 | 42 | 1012.0 |
| 20260505014445 | 79 | 262 | 0.9 | 0.9 | 0.00 | 0.00 | 0.00 | 42 | 1012.2 |
| 20260505013943 | 79 | 227 | 0.9 | 0.9 | 0.00 | 0.00 | 0.00 | 41 | 1012.0 |
| 20260505013440 | 79 | 204 | 0.9 | 0.9 | 0.00 | 0.00 | 0.00 | 42 | 1011.8 |
| 20260505012937 | 78 | 248 | 1.7 | 1.7 | 0.00 | 0.00 | 0.00 | 42 | 1012.2 |
| 20260505012435 | 78 | 297 | 2.6 | 2.6 | 0.00 | 0.00 | 0.00 | 41 | 1012.3 |
| 20260505011931 | 80 | 254 | 4.3 | 6.1 | 0.00 | 0.00 | 0.00 | 40 | 1012.3 |
| 20260505011428 | 80 | 296 | 2.6 | 2.6 | 0.00 | 0.00 | 0.00 | 40 | 1012.2 |
| 20260505010925 | 79 | 251 | 1.7 | 1.7 | 0.00 | 0.00 | 0.00 | 40 | 1012.4 |
| 20260505010420 | 80 | 255 | 2.6 | 2.6 | 0.00 | 0.00 | 0.00 | 39 | 1012.4 |
| 20260505005916 | 79 | 208 | 1.7 | 1.7 | 0.00 | 0.00 | 0.00 | 40 | 1012.3 |
| 20260505005414 | 80 | 356 | 1.7 | 1.7 | 0.00 | 0.00 | 0.00 | 39 | 1012.3 |
| 20260505004911 | 80 | 263 | 2.6 | 2.6 | 0.00 | 0.00 | 0.00 | 39 | 1012.3 |
| 20260505004407 | 79 | 5 | 0.9 | 1.7 | 0.00 | 0.00 | 0.00 | 39 | 1012.0 |
| 20260505003904 | 79 | 265 | 1.7 | 1.7 | 0.00 | 0.00 | 0.00 | 39 | 1012.2 |
| 20260505003401 | 81 | 220 | 2.6 | 4.3 | 0.00 | 0.00 | 0.00 | 38 | 1012.2 |
| 20260505002857 | 79 | 189 | 0.9 | 0.9 | 0.00 | 0.00 | 0.00 | 39 | 1012.3 |
| 20260505002354 | 78 | 197 | 1.7 | 1.7 | 0.00 | 0.00 | 0.00 | 40 | 1012.2 |
| 20260505001853 | 78 | 277 | 2.6 | 2.6 | 0.00 | 0.00 | 0.00 | 39 | 1012.3 |
| 20260505001349 | 79 | 315 | 2.6 | 2.6 | 0.00 | 0.00 | 0.00 | 40 | 1012.3 |
| 20260505000847 | 79 | 280 | 2.6 | 4.3 | 0.00 | 0.00 | 0.00 | 39 | 1012.4 |
| 20260505000344 | 79 | 222 | 1.7 | 1.7 | 0.00 | 0.00 | 0.00 | 39 | 1012.4 |
| 20260504235841 | 79 | 249 | 2.6 | 4.3 | 0.00 | 0.00 | 0.00 | 39 | 1012.5 |
| 20260504235338 | 80 | 276 | 2.6 | 2.6 | 0.00 | 0.00 | 0.00 | 38 | 1012.6 |
| 20260504234834 | 80 | 199 | 0.9 | 0.9 | 0.00 | 0.00 | 0.00 | 39 | 1012.5 |
| 20260504234332 | 79 | 269 | 5.2 | 7.0 | 0.00 | 0.00 | 0.00 | 39 | 1012.5 |
| 20260504233829 | 79 | 299 | 2.6 | 4.3 | 0.00 | 0.00 | 0.00 | 38 | 1012.5 |
| 20260504233324 | 79 | 246 | 6.1 | 7.0 | 0.00 | 0.00 | 0.00 | 40 | 1012.4 |
| 20260504232821 | 79 | 188 | 4.3 | 5.2 | 0.00 | 0.00 | 0.00 | 39 | 1012.5 |
| 20260504232319 | 79 | 265 | 2.6 | 2.6 | 0.00 | 0.00 | 0.00 | 40 | 1012.6 |
| 20260504231815 | 79 | 276 | 5.2 | 6.1 | 0.00 | 0.00 | 0.00 | 39 | 1012.5 |
| 20260504231312 | 80 | 290 | 0.9 | 1.7 | 0.00 | 0.00 | 0.00 | 38 | 1012.5 |
| 20260504230808 | 80 | 188 | 2.6 | 5.2 | 0.00 | 0.00 | 0.00 | 39 | 1012.6 |
| 20260504230306 | 80 | 201 | 2.6 | 4.3 | 0.00 | 0.00 | 0.00 | 39 | 1012.5 |
| 20260504225805 | 79 | 263 | 1.7 | 2.6 | 0.00 | 0.00 | 0.00 | 40 | 1012.5 |
| 20260504225300 | 79 | 179 | 4.3 | 6.1 | 0.00 | 0.00 | 0.00 | 39 | 1012.7 |
| 20260504224758 | 78 | 290 | 2.6 | 2.6 | 0.00 | 0.00 | 0.00 | 40 | 1012.4 |
| 20260504224255 | 79 | 248 | 3.5 | 5.2 | 0.00 | 0.00 | 0.00 | 40 | 1012.9 |
| 20260504223751 | 79 | 275 | 2.6 | 2.6 | 0.00 | 0.00 | 0.00 | 40 | 1012.9 |
| 20260504223247 | 79 | 320 | 4.3 | 5.2 | 0.00 | 0.00 | 0.00 | 40 | 1012.9 |
| 20260504222744 | 78 | 330 | 3.5 | 4.3 | 0.00 | 0.00 | 0.00 | 40 | 1012.9 |
| 20260504222241 | 78 | 271 | 0.9 | 0.9 | 0.00 | 0.00 | 0.00 | 40 | 1013.2 |
| 20260504221739 | 79 | 243 | 3.5 | 6.1 | 0.00 | 0.00 | 0.00 | 38 | 1013.1 |
| 20260504221235 | 80 | 293 | 6.1 | 7.0 | 0.00 | 0.00 | 0.00 | 37 | 1013.2 |
| 20260504220732 | 78 | 185 | 5.2 | 6.1 | 0.00 | 0.00 | 0.00 | 38 | 1013.2 |
| 20260504220229 | 78 | 239 | 6.1 | 7.0 | 0.00 | 0.00 | 0.00 | 37 | 1013.4 |
| 20260504215726 | 78 | 321 | 1.7 | 2.6 | 0.00 | 0.00 | 0.00 | 39 | 1013.3 |
| 20260504215223 | 78 | 264 | 6.1 | 7.8 | 0.00 | 0.00 | 0.00 | 37 | 1013.4 |
| 20260504214719 | 78 | 269 | 2.6 | 4.3 | 0.00 | 0.00 | 0.00 | 37 | 1013.1 |
| 20260504214215 | 78 | 259 | 2.6 | 4.3 | 0.00 | 0.00 | 0.00 | 38 | 1013.3 |
| 20260504213712 | 78 | 290 | 2.6 | 5.2 | 0.00 | 0.00 | 0.00 | 38 | 1013.3 |
| 20260504213209 | 79 | 287 | 5.2 | 6.1 | 0.00 | 0.00 | 0.00 | 37 | 1013.3 |
| 20260504212706 | 80 | 261 | 0.9 | 0.9 | 0.00 | 0.00 | 0.00 | 36 | 1013.4 |
| 20260504212202 | 79 | 297 | 1.7 | 1.7 | 0.00 | 0.00 | 0.00 | 37 | 1013.3 |
| 20260504211700 | 79 | 262 | 5.2 | 6.1 | 0.00 | 0.00 | 0.00 | 37 | 1013.5 |
| 20260504211155 | 79 | 233 | 4.3 | 5.2 | 0.00 | 0.00 | 0.00 | 37 | 1013.1 |
| 20260504210653 | 78 | 273 | 0.9 | 1.7 | 0.00 | 0.00 | 0.00 | 38 | 1013.3 |
| 20260504210150 | 78 | 336 | 1.7 | 1.7 | 0.00 | 0.00 | 0.00 | 38 | 1013.3 |
| 20260504205647 | 77 | 234 | 3.5 | 5.2 | 0.00 | 0.00 | 0.00 | 37 | 1013.4 |
| 20260504205144 | 78 | 180 | 3.5 | 5.2 | 0.00 | 0.00 | 0.00 | 38 | 1013.5 |
| 20260504204643 | 79 | 163 | 4.3 | 6.1 | 0.00 | 0.00 | 0.00 | 39 | 1013.2 |
| 20260504204141 | 78 | 192 | 1.7 | 1.7 | 0.00 | 0.00 | 0.00 | 41 | 1013.3 |
| 20260504203640 | 78 | 295 | 1.7 | 1.7 | 0.00 | 0.00 | 0.00 | 40 | 1013.3 |
| 20260504203137 | 79 | 202 | 0.9 | 1.7 | 0.00 | 0.00 | 0.00 | 40 | 1013.5 |
| 20260504202637 | 78 | 186 | 4.3 | 6.1 | 0.00 | 0.00 | 0.00 | 41 | 1013.6 |
| 20260504202134 | 77 | 285 | 2.6 | 2.6 | 0.00 | 0.00 | 0.00 | 41 | 1013.4 |
| 20260504201631 | 76 | 268 | 6.1 | 7.0 | 0.00 | 0.00 | 0.00 | 43 | 1013.4 |
| 20260504201129 | 76 | 264 | 4.3 | 6.1 | 0.00 | 0.00 | 0.00 | 44 | 1013.6 |
| 20260504200626 | 78 | 269 | 4.3 | 6.1 | 0.00 | 0.00 | 0.00 | 41 | 1013.6 |
| 20260504200122 | 77 | 98 | 0.0 | 0.9 | 0.00 | 0.00 | 0.00 | 42 | 1013.6 |
| 20260504195618 | 78 | 181 | 0.9 | 1.7 | 0.00 | 0.00 | 0.00 | 43 | 1013.5 |
| 20260504195115 | 76 | 50 | 0.9 | 0.9 | 0.00 | 0.00 | 0.00 | 45 | 1013.3 |
| 20260504194612 | 77 | 174 | 2.6 | 2.6 | 0.00 | 0.00 | 0.00 | 43 | 1013.6 |
| 20260504194107 | 75 | 332 | 0.9 | 1.7 | 0.00 | 0.00 | 0.00 | 44 | 1013.7 |
| 20260504193604 | 76 | 289 | 0.9 | 1.7 | 0.00 | 0.00 | 0.00 | 44 | 1013.6 |
| 20260504193102 | 77 | 191 | 1.7 | 2.6 | 0.00 | 0.00 | 0.00 | 43 | 1013.5 |
| 20260504192600 | 77 | 189 | 0.9 | 1.7 | 0.00 | 0.00 | 0.00 | 44 | 1013.7 |
| 20260504192058 | 76 | 173 | 4.3 | 4.3 | 0.00 | 0.00 | 0.00 | 44 | 1013.9 |
| 20260504191556 | 75 | 65 | 2.6 | 2.6 | 0.00 | 0.00 | 0.00 | 45 | 1013.7 |
| 20260504191052 | 75 | 292 | 4.3 | 5.2 | 0.00 | 0.00 | 0.00 | 44 | 1014.0 |
| 20260504190548 | 75 | 303 | 2.6 | 5.2 | 0.00 | 0.00 | 0.00 | 46 | 1013.8 |
| 20260504190044 | 74 | 261 | 2.6 | 4.3 | 0.00 | 0.00 | 0.00 | 45 | 1013.7 |
| 20260504185542 | 75 | 343 | 3.5 | 4.3 | 0.00 | 0.00 | 0.00 | 46 | 1014.0 |
| 20260504185038 | 75 | 198 | 0.9 | 1.7 | 0.00 | 0.00 | 0.00 | 49 | 1014.1 |
| 20260504184533 | 75 | 193 | 1.7 | 2.6 | 0.00 | 0.00 | 0.00 | 46 | 1013.9 |
| 20260504184029 | 74 | 331 | 1.7 | 1.7 | 0.00 | 0.00 | 0.00 | 49 | 1014.1 |
| 20260504183526 | 74 | 221 | 1.7 | 2.6 | 0.00 | 0.00 | 0.00 | 49 | 1013.9 |
| 20260504183025 | 73 | 294 | 4.3 | 5.2 | 0.00 | 0.00 | 0.00 | 48 | 1014.0 |
| 20260504182521 | 73 | 221 | 0.9 | 0.9 | 0.00 | 0.00 | 0.00 | 49 | 1014.0 |
| 20260504182018 | 74 | 16 | 1.7 | 2.6 | 0.00 | 0.00 | 0.00 | 49 | 1013.8 |
| 20260504181515 | 73 | 181 | 1.7 | 2.6 | 0.00 | 0.00 | 0.00 | 52 | 1013.9 |
| 20260504181014 | 73 | 206 | 1.7 | 2.6 | 0.00 | 0.00 | 0.00 | 52 | 1014.0 |
| 20260504180512 | 71 | 162 | 0.9 | 1.7 | 0.00 | 0.00 | 0.00 | 53 | 1013.9 |
| 20260504180011 | 72 | 175 | 0.9 | 0.9 | 0.00 | 0.00 | 0.00 | 51 | 1014.1 |
| 20260504175508 | 73 | 333 | 2.6 | 4.3 | 0.00 | 0.00 | 0.00 | 51 | 1013.9 |
| 20260504175005 | 72 | 159 | 0.9 | 1.7 | 0.00 | 0.00 | 0.00 | 51 | 1014.0 |
| 20260504174502 | 71 | 223 | 2.6 | 2.6 | 0.00 | 0.00 | 0.00 | 52 | 1014.1 |
| 20260504173959 | 72 | 142 | 0.9 | 1.7 | 0.00 | 0.00 | 0.00 | 51 | 1013.9 |
| 20260504173456 | 71 | 102 | 0.0 | 0.0 | 0.00 | 0.00 | 0.00 | 50 | 1014.2 |
| 20260504172953 | 71 | 278 | 0.9 | 0.9 | 0.00 | 0.00 | 0.00 | 51 | 1014.0 |
| 20260504172449 | 71 | 224 | 1.7 | 2.6 | 0.00 | 0.00 | 0.00 | 52 | 1014.0 |
| 20260504171946 | 72 | 234 | 2.6 | 2.6 | 0.00 | 0.00 | 0.00 | 50 | 1014.0 |
| 20260504171443 | 70 | 276 | 1.7 | 1.7 | 0.00 | 0.00 | 0.00 | 53 | 1013.9 |
| 20260504170940 | 71 | 221 | 2.6 | 2.6 | 0.00 | 0.00 | 0.00 | 52 | 1014.1 |
| 20260504170436 | 70 | 182 | 0.9 | 0.9 | 0.00 | 0.00 | 0.00 | 52 | 1014.1 |
| 20260504160355 | 67 | 147 | 0.0 | 0.9 | 0.00 | 0.00 | 0.00 | 56 | 1013.8 |
| 20260504150820 | 61 | 203 | 1.7 | 1.7 | 0.00 | 0.00 | 0.00 | 70 | 1013.3 |
| 20260504150316 | 60 | 244 | 0.0 | 0.0 | 0.00 | 0.00 | 0.00 | 75 | 1013.4 |
| 20260504141247 | 53 | 69 | 0.0 | 0.0 | 0.00 | 0.00 | 0.00 | 88 | 1013.2 |
| 20260504140743 | 52 | 69 | 0.0 | 0.9 | 0.00 | 0.00 | 0.00 | 89 | 1013.0 |
| 20260504140239 | 52 | 69 | 0.9 | 0.9 | 0.00 | 0.00 | 0.00 | 89 | 1013.2 |
| 20260504130708 | 50 | 69 | 0.0 | 0.9 | 0.00 | 0.00 | 0.00 | 92 | 1012.7 |
| 20260504130203 | 50 | 69 | 0.0 | 0.9 | 0.00 | 0.00 | 0.00 | 92 | 1012.8 |
| 20260504120127 | 51 | 69 | 0.9 | 0.9 | 0.00 | 0.00 | 0.00 | 89 | 1012.7 |
| 20260504110555 | 52 | 69 | 0.0 | 0.9 | 0.00 | 0.00 | 0.00 | 89 | 1012.6 |
| 20260504100516 | 53 | 69 | 0.9 | 0.9 | 0.00 | 0.00 | 0.00 | 86 | 1012.5 |
| 20260504081910 | 55 | 69 | 0.0 | 0.9 | 0.00 | 0.00 | 0.00 | 83 | 1012.4 |
| 20260504081406 | 56 | 69 | 0.0 | 0.9 | 0.00 | 0.00 | 0.00 | 83 | 1012.5 |
| 20260504080902 | 56 | 64 | 0.9 | 0.9 | 0.00 | 0.00 | 0.00 | 82 | 1012.5 |
| 20260504080400 | 56 | 64 | 0.9 | 0.9 | 0.00 | 0.00 | 0.00 | 81 | 1012.5 |
| 20260504070327 | 58 | 76 | 0.0 | 0.9 | 0.00 | 0.00 | 0.00 | 72 | 1012.9 |
| 20260504060247 | 59 | 70 | 0.9 | 0.9 | 0.00 | 0.00 | 0.00 | 76 | 1012.6 |